Regional Weather Roundup
Issued by NWS Green Bay, WI

Home | Current Version | Previous Version | Graphics & Text | Print | Product List | Glossary Off
Versions: 1 2 3 4 5 6 7 8 9 10 11 12 13 14 15 16 17 18 19 20 21 22 23 24 25 26 27 28 29 30 31 32 33 34 35 36 37 38 39 40 41 42 43 44 45 46 47 48 49 50

000
ASUS43 KGRB 260210
RWRGRB

NORTH-CENTRAL AND NORTHEAST WISCONSIN REGIONAL WEATHER ROUNDUP
NATIONAL WEATHER SERVICE GREEN BAY WI
900 PM CDT SAT OCT 25 2014

WIZ005-009-010>012-018-019-260300-
NORTH CENTRAL WISCONSIN

CITY           SKY/WX    TMP DP  RH WIND       PRES   REMARKS
IRONWOOD       CLEAR     48  28  46 W10       29.91R
MANITOWISH WTR CLEAR     47  26  44 NW10      29.92R
ARBOR VITAE    CLEAR     49  26  39 NW10      29.93R
EAGLE RIVER    CLEAR     47  22  36 NW10      29.91R
LAND O LAKES   CLEAR     49  24  38 NW10      29.92R
RHINELANDER    CLEAR     49  22  34 W10       29.92R
PHILLIPS       CLEAR     47  23  38 CALM      29.95R
ANTIGO         CLEAR     47  24  40 NW10G17   29.92R
TOMAHAWK       CLEAR     45  21  39 W3        29.94R
MERRILL        CLEAR     50  22  33 W5        29.93S
$$

WIZ013-073-260300-
NORTHEAST WISCONSIN

CITY           SKY/WX    TMP DP  RH WIND       PRES   REMARKS
IRON MOUNTAIN  CLEAR     51  24  34 NW16      29.84S
MARINETTE      CLEAR     54  21  28 NW6       29.85S
OCONTO         CLEAR     47  28  47 W8        29.88R
$$

WIZ017-030-035>037-045-260300-
CENTRAL WISCONSIN

CITY           SKY/WX    TMP DP  RH WIND       PRES   REMARKS
MEDFORD        CLEAR     44  28  52 W7        29.95F
WAUSAU         CLEAR     49  28  44 W9        29.93R
MOSINEE        CLEAR     50  27  40 W14       29.95R
MARSHFIELD     CLEAR     49  27  42 NW10      29.96R
WISC RAPIDS    CLEAR     51  27  39 W8        29.97R
STEVENS POINT  CLEAR     49  26  40 W5        29.95S
WAUPACA        CLEAR     50  31  48 W7        29.94R
SHAWANO        CLEAR     51  27  38 W6        29.91R
CLINTONVILLE   CLEAR     50  30  46 W8        29.91R
$$

WIZ038-039-048-051-260300-
FOX VALLEY

CITY           SKY/WX    TMP DP  RH WIND       PRES   REMARKS
NWS GREEN BAY  CLEAR     50  33  52 W9        29.90R
APPLETON       CLEAR     48  28  46 W7        29.93R
OSHKOSH        CLEAR     53  29  39 W7        29.93R
FOND DU LAC    CLEAR     53  28  38 W13       29.94R
$$

WIZ022-050-052-260300-
EAST CENTRAL WISCONSIN

CITY           SKY/WX    TMP DP  RH WIND       PRES   REMARKS
STURGEON BAY   CLEAR     54  28  37 W10       29.87R
MANITOWOC      CLEAR     54  31  41 W14       29.89R
SHEBOYGAN      CLEAR     53  30  41 W9        29.91R
$$

LMZ563-521-522-541>543-260300-
LAKESHORE

STATION/POSITION TIME  TEMP    WIND        PRES    VSBY  WAVE
                       AIR SEA DIR/SP/G                  HT/PER
                 (UTC) (F)     (DEG/KT/KT) (MB)    (MI)  (FT/S)
SHEBOYGAN LKSHOR 0200   57 51  280/ 11/ 13 1013.1R
KEWAUNEE LKSHORE 0200   53     290/  5/  8 1010.9R
ALGOMA MARINA    0200          310/  9/ 14   N/A
NORTHPORT PIER   0200   56     300/ 11/ 18 1010.2S
N MID LAKE BUOY  0200   54 51  300/ 17/ 21 1009.4R         3/ 4
CHAMBERS ISLAND  0200   56     310/  6/ 12 1010.8S
MENOMINEE LKSHOR 0200   55     280/  7/ 14 1011.6S
$$



USA.gov is the U.S. government's official web portal to all federal, state and local government web resources and services.